| time (UTC) | temp C | wind direction | speed KPH | gust KPH | rain 1hr cm | rain 24hr cm | rain mn cm | humidity % | barometer mb |
| 20260506201019 | 13 | 215 | 0.0 | 1.6 | 0.46 | 1.37 | 1.37 | 90 | 1007.0 |
| 20260506200519 | 13 | 190 | 0.0 | 1.6 | 0.48 | 1.37 | 1.37 | 90 | 1007.0 |
| 20260506200017 | 13 | 0.0 | 0.0 | 0.51 | 1.37 | 1.37 | 90 | 1007.3 | |
| 20260506195519 | 13 | 301 | 1.6 | 4.8 | 0.51 | 1.35 | 1.35 | 90 | 1007.6 |
| 20260506195019 | 13 | 284 | 1.6 | 4.8 | 0.48 | 1.27 | 1.27 | 90 | 1007.8 |
| 20260506194637 | 13 | 250 | 0.0 | 3.2 | 0.51 | 1.24 | 1.24 | 90 | 1007.9 |
| 20260506194017 | 13 | 293 | 3.2 | 8.0 | 0.56 | 1.22 | 1.22 | 90 | 1007.7 |
| 20260506193519 | 14 | 298 | 3.2 | 6.4 | 0.56 | 1.17 | 1.17 | 89 | 1007.7 |
| 20260506193017 | 14 | 293 | 4.8 | 8.0 | 0.53 | 1.04 | 1.04 | 89 | 1007.7 |
| 20260506192520 | 14 | 299 | 1.6 | 6.4 | 0.56 | 0.99 | 0.99 | 89 | 1007.4 |
| 20260506192020 | 14 | 284 | 0.0 | 3.2 | 0.56 | 0.91 | 0.91 | 88 | 1007.4 |
| 20260506191520 | 14 | 285 | 1.6 | 3.2 | 0.64 | 0.91 | 0.91 | 88 | 1007.3 |
| 20260506191023 | 13 | 235 | 0.0 | 1.6 | 0.71 | 0.91 | 0.91 | 87 | 1007.2 |
| 20260506190522 | 14 | 0.0 | 0.0 | 0.71 | 0.89 | 0.89 | 87 | 1007.2 | |
| 20260506190020 | 14 | 0.0 | 0.0 | 0.69 | 0.86 | 0.86 | 86 | 1007.0 | |
| 20260506185520 | 14 | 0.0 | 0.0 | 0.69 | 0.84 | 0.84 | 86 | 1007.0 | |
| 20260506185021 | 14 | 144 | 0.0 | 3.2 | 0.64 | 0.79 | 0.79 | 86 | 1007.0 |
| 20260506184520 | 14 | 166 | 1.6 | 4.8 | 0.61 | 0.74 | 0.74 | 86 | 1007.0 |
| 20260506184020 | 14 | 169 | 3.2 | 6.4 | 0.56 | 0.69 | 0.69 | 86 | 1007.1 |
| 20260506183518 | 14 | 168 | 4.8 | 11.3 | 0.48 | 0.61 | 0.61 | 86 | 1007.1 |
| 20260506183018 | 15 | 172 | 3.2 | 9.7 | 0.38 | 0.53 | 0.51 | 85 | 1006.9 |
| 20260506182541 | 15 | 203 | 1.6 | 4.8 | 0.30 | 0.43 | 0.43 | 85 | 1006.8 |
| 20260506182041 | 15 | 236 | 1.6 | 4.8 | 0.23 | 0.38 | 0.36 | 84 | 1006.7 |
| 20260506181522 | 15 | 236 | 1.6 | 3.2 | 0.15 | 0.28 | 0.28 | 83 | 1006.5 |
| 20260506181038 | 15 | 197 | 1.6 | 6.4 | 0.08 | 0.23 | 0.20 | 82 | 1006.3 |
| 20260506180540 | 15 | 194 | 3.2 | 8.0 | 0.08 | 0.20 | 0.18 | 81 | 1006.3 |
| 20260506180038 | 16 | 173 | 4.8 | 11.3 | 0.05 | 0.18 | 0.15 | 79 | 1006.2 |
| 20260506175528 | 16 | 170 | 4.8 | 9.7 | 0.08 | 0.15 | 0.15 | 78 | 1006.2 |
| 20260506175019 | 16 | 170 | 4.8 | 11.3 | 0.10 | 0.15 | 0.15 | 77 | 1006.2 |
| 20260506174519 | 16 | 166 | 3.2 | 14.5 | 0.10 | 0.15 | 0.13 | 78 | 1006.4 |
| 20260506174021 | 16 | 158 | 3.2 | 8.0 | 0.10 | 0.15 | 0.13 | 78 | 1006.1 |
| 20260506173521 | 16 | 153 | 1.6 | 4.8 | 0.10 | 0.15 | 0.13 | 80 | 1005.8 |
| 20260506173018 | 16 | 0.0 | 0.0 | 0.10 | 0.15 | 0.13 | 79 | 1005.6 | |
| 20260506172539 | 16 | 308 | 0.0 | 1.6 | 0.10 | 0.15 | 0.13 | 79 | 1005.5 |
| 20260506172041 | 16 | 119 | 0.0 | 1.6 | 0.10 | 0.15 | 0.13 | 78 | 1005.3 |
| 20260506171518 | 16 | 121 | 0.0 | 1.6 | 0.10 | 0.15 | 0.13 | 76 | 1005.2 |
| 20260506171019 | 17 | 300 | 0.0 | 1.6 | 0.10 | 0.13 | 0.13 | 75 | 1005.2 |
| 20260506170519 | 17 | 157 | 1.6 | 4.8 | 0.08 | 0.13 | 0.10 | 74 | 1005.3 |
| 20260506170020 | 17 | 158 | 3.2 | 6.4 | 0.08 | 0.13 | 0.10 | 73 | 1005.3 |
| 20260506165520 | 18 | 158 | 4.8 | 14.5 | 0.05 | 0.10 | 0.08 | 69 | 1005.3 |
| 20260506165022 | 19 | 170 | 3.2 | 12.9 | 0.03 | 0.05 | 0.03 | 66 | 1005.2 |
| 20260506164520 | 20 | 165 | 6.4 | 16.1 | 0.00 | 0.05 | 0.03 | 61 | 1005.3 |
| 20260506164017 | 21 | 187 | 6.4 | 14.5 | 0.00 | 0.05 | 0.03 | 53 | 1005.3 |
| 20260506163517 | 22 | 190 | 4.8 | 12.9 | 0.00 | 0.03 | 0.03 | 48 | 1005.2 |
| 20260506163017 | 22 | 237 | 3.2 | 11.3 | 0.00 | 0.03 | 0.03 | 44 | 1004.9 |
| 20260506162517 | 22 | 223 | 3.2 | 8.0 | 0.00 | 0.03 | 0.03 | 43 | 1004.8 |
| 20260506162017 | 22 | 294 | 1.6 | 6.4 | 0.00 | 0.03 | 0.03 | 43 | 1004.8 |
| 20260506161517 | 22 | 243 | 1.6 | 4.8 | 0.00 | 0.03 | 0.03 | 43 | 1004.8 |
| 20260506161020 | 23 | 293 | 1.6 | 4.8 | 0.00 | 0.03 | 0.03 | 43 | 1004.8 |
| 20260506160520 | 23 | 161 | 1.6 | 4.8 | 0.00 | 0.03 | 0.03 | 43 | 1004.8 |
| 20260506160020 | 23 | 211 | 1.6 | 4.8 | 0.00 | 0.03 | 0.03 | 42 | 1004.9 |
| 20260506155520 | 23 | 255 | 1.6 | 6.4 | 0.00 | 0.03 | 0.03 | 41 | 1004.9 |
| 20260506155018 | 23 | 211 | 1.6 | 6.4 | 0.00 | 0.03 | 0.03 | 41 | 1004.9 |
| 20260506154518 | 24 | 172 | 3.2 | 8.0 | 0.00 | 0.03 | 0.03 | 40 | 1004.8 |
| 20260506154018 | 25 | 199 | 3.2 | 6.4 | 0.00 | 0.03 | 0.03 | 40 | 1004.8 |
| 20260506153518 | 25 | 215 | 3.2 | 8.0 | 0.00 | 0.03 | 0.03 | 39 | 1004.8 |
| 20260506153018 | 24 | 227 | 1.6 | 6.4 | 0.00 | 0.03 | 0.03 | 40 | 1004.8 |
| 20260506152518 | 23 | 254 | 3.2 | 6.4 | 0.00 | 0.03 | 0.03 | 40 | 1004.9 |
| 20260506152018 | 23 | 294 | 4.8 | 12.9 | 0.00 | 0.03 | 0.03 | 41 | 1004.9 |
| 20260506151518 | 24 | 270 | 4.8 | 11.3 | 0.00 | 0.03 | 0.03 | 41 | 1005.0 |
| 20260506151018 | 24 | 293 | 6.4 | 17.7 | 0.00 | 0.03 | 0.03 | 41 | 1005.1 |
| 20260506150519 | 24 | 288 | 3.2 | 9.7 | 0.00 | 0.03 | 0.03 | 40 | 1005.1 |
| 20260506150039 | 24 | 290 | 3.2 | 8.0 | 0.00 | 0.03 | 0.03 | 41 | 1005.1 |
| 20260506145518 | 23 | 291 | 4.8 | 12.9 | 0.00 | 0.03 | 0.03 | 41 | 1005.1 |
| 20260506145019 | 23 | 278 | 3.2 | 11.3 | 0.00 | 0.03 | 0.03 | 42 | 1005.1 |
| 20260506144519 | 23 | 218 | 4.8 | 12.9 | 0.00 | 0.03 | 0.03 | 41 | 1005.2 |
| 20260506144019 | 23 | 248 | 3.2 | 11.3 | 0.00 | 0.03 | 0.03 | 41 | 1005.2 |
| 20260506143519 | 23 | 239 | 4.8 | 12.9 | 0.00 | 0.03 | 0.03 | 41 | 1005.3 |
| 20260506143019 | 23 | 255 | 4.8 | 12.9 | 0.00 | 0.03 | 0.03 | 42 | 1005.3 |
| 20260506142519 | 23 | 238 | 3.2 | 14.5 | 0.00 | 0.03 | 0.03 | 42 | 1005.4 |
| 20260506142017 | 22 | 269 | 3.2 | 12.9 | 0.00 | 0.03 | 0.03 | 44 | 1005.5 |
| 20260506141516 | 22 | 236 | 4.8 | 12.9 | 0.00 | 0.03 | 0.03 | 44 | 1005.6 |
| 20260506141019 | 22 | 264 | 4.8 | 11.3 | 0.00 | 0.03 | 0.03 | 45 | 1005.7 |
| 20260506140520 | 22 | 302 | 4.8 | 9.7 | 0.00 | 0.03 | 0.03 | 45 | 1005.7 |
| 20260506140020 | 22 | 302 | 4.8 | 11.3 | 0.00 | 0.03 | 0.03 | 45 | 1005.7 |
| 20260506135519 | 22 | 248 | 3.2 | 8.0 | 0.00 | 0.03 | 0.03 | 46 | 1005.8 |
| 20260506135020 | 22 | 256 | 4.8 | 14.5 | 0.00 | 0.03 | 0.03 | 45 | 1005.8 |
| 20260506134600 | 22 | 260 | 3.2 | 8.0 | 0.00 | 0.03 | 0.03 | 46 | 1005.9 |
| 20260506134018 | 22 | 267 | 4.8 | 11.3 | 0.00 | 0.03 | 0.03 | 45 | 1005.9 |
| 20260506133517 | 22 | 234 | 1.6 | 6.4 | 0.00 | 0.03 | 0.03 | 46 | 1005.9 |
| 20260506133017 | 22 | 246 | 4.8 | 14.5 | 0.00 | 0.03 | 0.03 | 46 | 1005.9 |
| 20260506132517 | 22 | 237 | 4.8 | 9.7 | 0.00 | 0.03 | 0.03 | 44 | 1005.8 |
| 20260506132037 | 23 | 252 | 4.8 | 9.7 | 0.00 | 0.03 | 0.03 | 43 | 1005.8 |
| 20260506131518 | 23 | 232 | 4.8 | 11.3 | 0.00 | 0.03 | 0.03 | 45 | 1005.9 |
| 20260506131022 | 23 | 238 | 6.4 | 14.5 | 0.00 | 0.03 | 0.03 | 46 | 1005.9 |
| 20260506130523 | 22 | 261 | 4.8 | 16.1 | 0.00 | 0.03 | 0.03 | 46 | 1005.9 |
| 20260506130019 | 22 | 216 | 4.8 | 11.3 | 0.00 | 0.03 | 0.03 | 47 | 1005.9 |
| 20260506125558 | 22 | 254 | 4.8 | 14.5 | 0.00 | 0.03 | 0.03 | 48 | 1006.0 |
| 20260506125018 | 21 | 250 | 4.8 | 11.3 | 0.00 | 0.03 | 0.03 | 49 | 1006.1 |
| 20260506124538 | 21 | 235 | 6.4 | 14.5 | 0.00 | 0.03 | 0.03 | 50 | 1006.1 |
| 20260506124018 | 21 | 216 | 4.8 | 12.9 | 0.00 | 0.03 | 0.03 | 50 | 1006.1 |
| 20260506123518 | 22 | 205 | 4.8 | 12.9 | 0.00 | 0.03 | 0.03 | 50 | 1006.1 |
| 20260506123018 | 22 | 176 | 6.4 | 12.9 | 0.00 | 0.03 | 0.03 | 50 | 1006.1 |
| 20260506122518 | 22 | 227 | 6.4 | 14.5 | 0.00 | 0.03 | 0.03 | 49 | 1006.1 |
| 20260506122019 | 21 | 218 | 6.4 | 16.1 | 0.00 | 0.03 | 0.03 | 50 | 1006.1 |
| 20260506121518 | 21 | 221 | 4.8 | 12.9 | 0.00 | 0.03 | 0.03 | 51 | 1006.0 |
| 20260506121018 | 21 | 221 | 4.8 | 14.5 | 0.00 | 0.03 | 0.03 | 51 | 1006.0 |
| 20260506120519 | 21 | 233 | 4.8 | 16.1 | 0.00 | 0.03 | 0.03 | 50 | 1006.0 |
| 20260506120039 | 21 | 199 | 4.8 | 11.3 | 0.00 | 0.03 | 0.03 | 51 | 1005.9 |
| 20260506115521 | 21 | 229 | 6.4 | 14.5 | 0.00 | 0.03 | 0.03 | 51 | 1006.0 |
| 20260506115019 | 21 | 207 | 4.8 | 14.5 | 0.00 | 0.03 | 0.03 | 51 | 1006.0 |
| 20260506114531 | 21 | 232 | 6.4 | 16.1 | 0.00 | 0.03 | 0.03 | 50 | 1006.1 |
| 20260506114019 | 21 | 239 | 6.4 | 14.5 | 0.00 | 0.03 | 0.03 | 50 | 1006.1 |
| 20260506113519 | 21 | 249 | 4.8 | 12.9 | 0.00 | 0.03 | 0.03 | 50 | 1006.1 |
| 20260506113019 | 22 | 214 | 6.4 | 14.5 | 0.00 | 0.03 | 0.03 | 50 | 1006.0 |
| 20260506112516 | 22 | 233 | 6.4 | 14.5 | 0.00 | 0.03 | 0.03 | 50 | 1006.0 |
| 20260506112037 | 21 | 213 | 3.2 | 11.3 | 0.00 | 0.03 | 0.03 | 50 | 1006.0 |
| 20260506111517 | 21 | 249 | 6.4 | 14.5 | 0.00 | 0.03 | 0.03 | 51 | 1006.0 |
| 20260506111020 | 21 | 235 | 6.4 | 22.5 | 0.00 | 0.03 | 0.03 | 51 | 1006.0 |
| 20260506110520 | 21 | 222 | 4.8 | 14.5 | 0.00 | 0.03 | 0.03 | 52 | 1006.0 |
| 20260506110020 | 21 | 213 | 4.8 | 12.9 | 0.00 | 0.03 | 0.03 | 53 | 1006.0 |
| 20260506105520 | 20 | 225 | 6.4 | 14.5 | 0.00 | 0.03 | 0.03 | 55 | 1006.1 |
| 20260506105020 | 20 | 195 | 4.8 | 17.7 | 0.00 | 0.03 | 0.03 | 55 | 1006.1 |
| 20260506104517 | 20 | 234 | 8.0 | 17.7 | 0.00 | 0.03 | 0.03 | 55 | 1006.1 |
| 20260506104017 | 20 | 242 | 6.4 | 14.5 | 0.00 | 0.03 | 0.03 | 54 | 1006.1 |
| 20260506103517 | 21 | 226 | 6.4 | 19.3 | 0.00 | 0.03 | 0.03 | 54 | 1006.0 |
| 20260506103018 | 21 | 222 | 4.8 | 14.5 | 0.00 | 0.03 | 0.03 | 53 | 1006.0 |
| 20260506102517 | 21 | 213 | 6.4 | 14.5 | 0.00 | 0.03 | 0.03 | 54 | 1005.9 |
| 20260506102017 | 21 | 236 | 6.4 | 19.3 | 0.00 | 0.03 | 0.03 | 54 | 1006.0 |
| 20260506101517 | 20 | 207 | 6.4 | 14.5 | 0.00 | 0.03 | 0.03 | 54 | 1006.0 |
| 20260506101021 | 20 | 245 | 6.4 | 17.7 | 0.00 | 0.03 | 0.03 | 55 | 1006.1 |
| 20260506100521 | 20 | 245 | 6.4 | 20.9 | 0.00 | 0.03 | 0.03 | 55 | 1006.1 |
| 20260506100038 | 20 | 230 | 4.8 | 16.1 | 0.00 | 0.03 | 0.03 | 55 | 1006.0 |
| 20260506095538 | 20 | 200 | 6.4 | 12.9 | 0.00 | 0.03 | 0.03 | 55 | 1005.9 |
| 20260506095040 | 20 | 203 | 4.8 | 16.1 | 0.00 | 0.03 | 0.03 | 55 | 1006.1 |
| 20260506094518 | 20 | 234 | 4.8 | 12.9 | 0.00 | 0.03 | 0.03 | 57 | 1006.2 |
| 20260506094018 | 19 | 173 | 4.8 | 11.3 | 0.00 | 0.03 | 0.03 | 58 | 1006.2 |
| 20260506093618 | 19 | 201 | 4.8 | 14.5 | 0.00 | 0.03 | 0.03 | 59 | 1006.2 |
| 20260506093018 | 19 | 247 | 4.8 | 14.5 | 0.00 | 0.03 | 0.03 | 60 | 1006.1 |
| 20260506092518 | 19 | 200 | 4.8 | 12.9 | 0.00 | 0.03 | 0.03 | 62 | 1006.1 |
| 20260506092018 | 18 | 177 | 4.8 | 12.9 | 0.00 | 0.03 | 0.03 | 62 | 1006.2 |
| 20260506091519 | 18 | 228 | 4.8 | 9.7 | 0.00 | 0.03 | 0.03 | 62 | 1006.2 |
| 20260506091021 | 18 | 233 | 6.4 | 11.3 | 0.00 | 0.03 | 0.03 | 63 | 1006.2 |
| 20260506090554 | 18 | 254 | 4.8 | 11.3 | 0.00 | 0.03 | 0.03 | 63 | 1006.1 |
| 20260506090019 | 19 | 231 | 4.8 | 11.3 | 0.00 | 0.03 | 0.03 | 63 | 1006.1 |
| 20260506085519 | 19 | 249 | 4.8 | 9.7 | 0.00 | 0.03 | 0.03 | 63 | 1006.1 |
| 20260506085019 | 19 | 222 | 3.2 | 8.0 | 0.00 | 0.03 | 0.03 | 63 | 1006.0 |
| 20260506084519 | 19 | 209 | 3.2 | 11.3 | 0.00 | 0.03 | 0.03 | 63 | 1006.0 |
| 20260506084019 | 19 | 259 | 4.8 | 14.5 | 0.00 | 0.03 | 0.03 | 63 | 1006.0 |
| 20260506083519 | 19 | 235 | 3.2 | 9.7 | 0.00 | 0.03 | 0.03 | 63 | 1006.0 |
| 20260506083020 | 18 | 206 | 4.8 | 11.3 | 0.00 | 0.03 | 0.03 | 64 | 1005.9 |
| 20260506082519 | 18 | 186 | 1.6 | 8.0 | 0.00 | 0.03 | 0.03 | 67 | 1006.0 |
| 20260506082019 | 18 | 213 | 1.6 | 11.3 | 0.00 | 0.03 | 0.03 | 69 | 1006.0 |
| 20260506081516 | 17 | 294 | 3.2 | 9.7 | 0.00 | 0.03 | 0.03 | 70 | 1006.0 |
| 20260506081021 | 17 | 301 | 1.6 | 6.4 | 0.00 | 0.03 | 0.03 | 71 | 1006.1 |
| 20260506080520 | 17 | 310 | 1.6 | 8.0 | 0.00 | 0.03 | 0.03 | 72 | 1006.1 |
| 20260506073517 | 17 | 309 | 4.8 | 12.9 | 0.00 | 0.03 | 0.03 | 72 | 1005.8 |
| 20260506073017 | 17 | 306 | 4.8 | 12.9 | 0.00 | 0.03 | 0.03 | 71 | 1005.8 |
| 20260506072518 | 17 | 312 | 3.2 | 8.0 | 0.00 | 0.03 | 0.03 | 71 | 1005.8 |
| 20260506072018 | 17 | 230 | 1.6 | 6.4 | 0.00 | 0.03 | 0.03 | 71 | 1005.8 |
| 20260506071518 | 16 | 224 | 1.6 | 6.4 | 0.00 | 0.03 | 0.03 | 73 | 1005.8 |
| 20260506071021 | 16 | 278 | 3.2 | 8.0 | 0.00 | 0.03 | 0.03 | 74 | 1005.7 |
| 20260506070521 | 16 | 281 | 1.6 | 4.8 | 0.00 | 0.03 | 0.03 | 75 | 1005.8 |
| 20260506062019 | 15 | 296 | 1.6 | 4.8 | 0.00 | 0.03 | 0.03 | 76 | 1005.6 |
| 20260506061519 | 15 | 201 | 1.6 | 6.4 | 0.00 | 0.03 | 0.03 | 76 | 1005.8 |
| 20260506061019 | 14 | 217 | 1.6 | 4.8 | 0.00 | 0.03 | 0.03 | 77 | 1005.9 |
| 20260506060539 | 14 | 173 | 1.6 | 6.4 | 0.00 | 0.03 | 0.03 | 77 | 1005.8 |
| 20260506051019 | 12 | 221 | 0.0 | 1.6 | 0.03 | 0.03 | 0.03 | 84 | 1005.6 |
| 20260506050600 | 12 | 216 | 1.6 | 4.8 | 0.03 | 0.03 | 0.03 | 84 | 1005.7 |
| 20260506045020 | 11 | 245 | 0.0 | 1.6 | 0.03 | 0.03 | 0.03 | 84 | 1005.5 |
| 20260506044540 | 11 | 0.0 | 0.0 | 0.03 | 0.03 | 0.03 | 84 | 1005.4 | |
| 20260506044017 | 11 | 296 | 0.0 | 1.6 | 0.03 | 0.03 | 0.03 | 84 | 1005.4 |
| 20260506043517 | 11 | 0.0 | 0.0 | 0.03 | 0.03 | 0.03 | 84 | 1005.3 | |
| 20260506043018 | 11 | 286 | 0.0 | 3.2 | 0.00 | 0.03 | 0.00 | 84 | 1005.2 |
| 20260506042518 | 11 | 292 | 0.0 | 3.2 | 0.00 | 0.03 | 0.00 | 84 | 1005.3 |
| 20260506042017 | 11 | 281 | 1.6 | 4.8 | 0.00 | 0.03 | 0.00 | 84 | 1005.2 |
| 20260506041518 | 11 | 240 | 0.0 | 1.6 | 0.00 | 0.03 | 0.00 | 84 | 1005.1 |
| 20260506041041 | 11 | 263 | 0.0 | 1.6 | 0.00 | 0.03 | 0.00 | 85 | 1005.2 |
| 20260506040521 | 11 | 256 | 1.6 | 4.8 | 0.00 | 0.03 | 0.00 | 85 | 1005.3 |
| 20260506040018 | 11 | 280 | 1.6 | 8.0 | 0.00 | 0.03 | 0.00 | 85 | 1005.3 |
| 20260506035519 | 11 | 266 | 1.6 | 6.4 | 0.00 | 0.03 | 0.00 | 86 | 1005.3 |
| 20260506035018 | 10 | 250 | 1.6 | 3.2 | 0.00 | 0.03 | 0.00 | 86 | 1005.3 |
| 20260506034539 | 10 | 210 | 1.6 | 6.4 | 0.00 | 0.03 | 0.00 | 86 | 1005.2 |
| 20260506034019 | 10 | 223 | 3.2 | 6.4 | 0.00 | 0.03 | 0.00 | 87 | 1005.1 |
| 20260506033519 | 10 | 214 | 1.6 | 4.8 | 0.00 | 0.03 | 0.00 | 87 | 1005.0 |
| 20260506033019 | 10 | 215 | 1.6 | 3.2 | 0.00 | 0.03 | 0.00 | 87 | 1004.8 |
| 20260506032539 | 10 | 203 | 1.6 | 1.6 | 0.00 | 0.03 | 0.00 | 87 | 1004.7 |
| 20260506032039 | 10 | 0.0 | 0.0 | 0.00 | 0.03 | 0.00 | 87 | 1004.6 | |
| 20260506031539 | 10 | 181 | 1.6 | 3.2 | 0.00 | 0.03 | 0.00 | 86 | 1004.7 |
| 20260506031019 | 10 | 183 | 1.6 | 3.2 | 0.00 | 0.03 | 0.00 | 86 | 1004.8 |
| 20260506030519 | 10 | 204 | 0.0 | 1.6 | 0.00 | 0.03 | 0.00 | 87 | 1004.7 |
| 20260506030019 | 10 | 192 | 1.6 | 3.2 | 0.00 | 0.03 | 0.00 | 87 | 1004.7 |
| 20260506025519 | 10 | 211 | 0.0 | 1.6 | 0.00 | 0.03 | 0.00 | 87 | 1004.6 |
| 20260506025019 | 10 | 174 | 1.6 | 3.2 | 0.00 | 0.03 | 0.00 | 87 | 1004.7 |
| 20260506024539 | 10 | 177 | 0.0 | 3.2 | 0.00 | 0.03 | 0.00 | 86 | 1004.9 |
| 20260506024019 | 11 | 0.0 | 0.0 | 0.00 | 0.03 | 0.00 | 86 | 1005.0 | |
| 20260506023520 | 11 | 219 | 0.0 | 1.6 | 0.00 | 0.03 | 0.00 | 86 | 1005.1 |
| 20260506023016 | 11 | 246 | 0.0 | 1.6 | 0.00 | 0.03 | 0.00 | 86 | 1005.2 |
| 20260506022537 | 11 | 235 | 1.6 | 3.2 | 0.00 | 0.03 | 0.00 | 86 | 1005.3 |
| 20260506022040 | 11 | 282 | 1.6 | 6.4 | 0.00 | 0.03 | 0.00 | 86 | 1005.4 |
| 20260506021520 | 11 | 295 | 1.6 | 6.4 | 0.00 | 0.03 | 0.00 | 86 | 1005.5 |
| 20260506021020 | 11 | 284 | 1.6 | 6.4 | 0.00 | 0.03 | 0.00 | 85 | 1005.3 |
| 20260506020521 | 11 | 209 | 0.0 | 1.6 | 0.00 | 0.03 | 0.00 | 85 | 1005.2 |
| 20260506020020 | 11 | 210 | 1.6 | 3.2 | 0.00 | 0.03 | 0.00 | 85 | 1005.3 |
| 20260506015520 | 11 | 276 | 1.6 | 4.8 | 0.00 | 0.03 | 0.00 | 85 | 1005.2 |
| 20260506015017 | 11 | 277 | 1.6 | 4.8 | 0.00 | 0.03 | 0.00 | 85 | 1005.3 |
| 20260506014518 | 11 | 279 | 1.6 | 4.8 | 0.00 | 0.03 | 0.00 | 85 | 1005.2 |
| 20260506014017 | 11 | 280 | 1.6 | 4.8 | 0.00 | 0.03 | 0.00 | 84 | 1005.3 |
| 20260506013537 | 11 | 282 | 1.6 | 6.4 | 0.00 | 0.03 | 0.00 | 84 | 1005.2 |
| 20260506013018 | 11 | 295 | 1.6 | 4.8 | 0.00 | 0.03 | 0.00 | 84 | 1005.2 |
| 20260506012517 | 11 | 286 | 1.6 | 3.2 | 0.00 | 0.03 | 0.00 | 84 | 1005.2 |
| 20260506012021 | 11 | 277 | 0.0 | 4.8 | 0.00 | 0.03 | 0.00 | 84 | 1005.3 |
| 20260506011518 | 11 | 260 | 0.0 | 4.8 | 0.00 | 0.03 | 0.00 | 84 | 1005.3 |
| 20260506011018 | 11 | 266 | 0.0 | 3.2 | 0.00 | 0.03 | 0.00 | 84 | 1005.3 |
| 20260506010518 | 11 | 280 | 0.0 | 4.8 | 0.00 | 0.03 | 0.00 | 83 | 1005.3 |
| 20260506010038 | 12 | 275 | 0.0 | 4.8 | 0.00 | 0.03 | 0.00 | 83 | 1005.3 |
| 20260506005518 | 12 | 262 | 0.0 | 1.6 | 0.00 | 0.03 | 0.00 | 83 | 1005.3 |
| 20260506005018 | 12 | 270 | 1.6 | 3.2 | 0.00 | 0.03 | 0.00 | 83 | 1005.2 |
| 20260506004517 | 12 | 267 | 1.6 | 4.8 | 0.00 | 0.03 | 0.00 | 83 | 1005.2 |
| 20260506004017 | 12 | 251 | 0.0 | 1.6 | 0.00 | 0.03 | 0.00 | 82 | 1005.2 |
| 20260506003518 | 12 | 234 | 0.0 | 1.6 | 0.00 | 0.03 | 0.00 | 82 | 1005.2 |
| 20260506003018 | 12 | 234 | 0.0 | 1.6 | 0.00 | 0.03 | 0.00 | 82 | 1005.2 |
| 20260506002518 | 12 | 290 | 0.0 | 3.2 | 0.00 | 0.03 | 0.00 | 82 | 1005.1 |
| 20260506002019 | 12 | 289 | 1.6 | 3.2 | 0.00 | 0.03 | 0.00 | 82 | 1005.1 |
| 20260506001519 | 12 | 286 | 1.6 | 3.2 | 0.00 | 0.03 | 0.00 | 81 | 1005.0 |
| 20260506001039 | 12 | 298 | 1.6 | 3.2 | 0.00 | 0.03 | 0.00 | 82 | 1005.1 |
| 20260506000518 | 12 | 307 | 0.0 | 3.2 | 0.00 | 0.03 | 0.00 | 82 | 1005.2 |
| 20260506000018 | 12 | 0.0 | 0.0 | 0.00 | 0.03 | 0.00 | 82 | 1005.3 | |
| 20260505235518 | 12 | 0.0 | 0.0 | 0.00 | 0.03 | 0.00 | 82 | 1005.2 | |
| 20260505235018 | 12 | 0.0 | 0.0 | 0.00 | 0.03 | 0.00 | 82 | 1005.2 | |
| 20260505234518 | 12 | 0.0 | 0.0 | 0.00 | 0.03 | 0.00 | 82 | 1005.2 | |
| 20260505234017 | 12 | 0.0 | 0.0 | 0.00 | 0.03 | 0.00 | 82 | 1005.2 | |
| 20260505233518 | 12 | 0.0 | 0.0 | 0.00 | 0.03 | 0.00 | 82 | 1005.2 | |
| 20260505233037 | 12 | 0.0 | 0.0 | 0.00 | 0.03 | 0.00 | 82 | 1005.2 | |
| 20260505232537 | 12 | 0.0 | 0.0 | 0.00 | 0.03 | 0.00 | 81 | 1005.3 | |
| 20260505232019 | 12 | 226 | 0.0 | 3.2 | 0.00 | 0.03 | 0.00 | 82 | 1005.3 |
| 20260505231519 | 12 | 0.0 | 0.0 | 0.00 | 0.03 | 0.00 | 81 | 1005.3 | |
| 20260505231019 | 12 | 0.0 | 0.0 | 0.00 | 0.03 | 0.00 | 81 | 1005.3 | |
| 20260505230519 | 12 | 0.0 | 0.0 | 0.00 | 0.03 | 0.00 | 81 | 1005.3 | |
| 20260505230019 | 12 | 0.0 | 0.0 | 0.00 | 0.03 | 0.00 | 81 | 1005.3 | |
| 20260505225517 | 13 | 0.0 | 0.0 | 0.00 | 0.03 | 0.00 | 81 | 1005.4 | |
| 20260505225017 | 13 | 0.0 | 0.0 | 0.00 | 0.03 | 0.00 | 80 | 1005.3 | |
| 20260505224517 | 13 | 0.0 | 0.0 | 0.00 | 0.03 | 0.00 | 80 | 1005.3 | |
| 20260505224017 | 13 | 0.0 | 0.0 | 0.00 | 0.03 | 0.00 | 80 | 1005.4 | |
| 20260505223519 | 13 | 184 | 0.0 | 1.6 | 0.00 | 0.03 | 0.00 | 79 | 1005.5 |
| 20260505223020 | 13 | 0.0 | 0.0 | 0.00 | 0.03 | 0.00 | 79 | 1005.5 | |
| 20260505222520 | 13 | 0.0 | 0.0 | 0.00 | 0.03 | 0.00 | 79 | 1005.6 | |
| 20260505222020 | 14 | 0.0 | 0.0 | 0.00 | 0.03 | 0.00 | 79 | 1005.7 | |
| 20260505221518 | 14 | 295 | 0.0 | 1.6 | 0.00 | 0.03 | 0.00 | 79 | 1005.7 |
| 20260505221018 | 14 | 290 | 0.0 | 3.2 | 0.00 | 0.03 | 0.00 | 79 | 1005.7 |
| 20260505220038 | 15 | 0.0 | 0.0 | 0.00 | 0.03 | 0.00 | 78 | 1005.8 | |
| 20260505215518 | 15 | 285 | 0.0 | 3.2 | 0.00 | 0.03 | 0.03 | 78 | 1005.9 |
| 20260505215059 | 15 | 278 | 0.0 | 3.2 | 0.00 | 0.03 | 0.03 | 78 | 1006.0 |
| 20260505214518 | 15 | 277 | 0.0 | 3.2 | 0.00 | 0.03 | 0.03 | 78 | 1006.0 |
| 20260505214019 | 15 | 275 | 1.6 | 4.8 | 0.00 | 0.03 | 0.03 | 78 | 1006.0 |
| 20260505213519 | 15 | 244 | 0.0 | 3.2 | 0.00 | 0.03 | 0.03 | 78 | 1006.0 |
| 20260505213019 | 15 | 286 | 1.6 | 4.8 | 0.00 | 0.03 | 0.03 | 78 | 1006.0 |
| 20260505212539 | 15 | 241 | 0.0 | 1.6 | 0.00 | 0.03 | 0.03 | 78 | 1005.9 |
| 20260505212019 | 15 | 169 | 0.0 | 1.6 | 0.00 | 0.03 | 0.03 | 78 | 1005.9 |
| 20260505211519 | 15 | 198 | 0.0 | 1.6 | 0.00 | 0.03 | 0.03 | 78 | 1005.9 |
| 20260505211019 | 15 | 237 | 0.0 | 1.6 | 0.00 | 0.03 | 0.03 | 78 | 1005.9 |
| 20260505210519 | 16 | 189 | 0.0 | 1.6 | 0.00 | 0.03 | 0.03 | 77 | 1005.8 |
| 20260505210019 | 16 | 197 | 0.0 | 1.6 | 0.00 | 0.03 | 0.03 | 77 | 1005.7 |
| 20260505205519 | 16 | 111 | 0.0 | 3.2 | 0.00 | 0.03 | 0.03 | 77 | 1005.8 |
| 20260505205016 | 16 | 151 | 0.0 | 1.6 | 0.00 | 0.03 | 0.03 | 77 | 1005.8 |
| 20260505204518 | 16 | 298 | 0.0 | 6.4 | 0.00 | 0.03 | 0.03 | 77 | 1005.8 |
| 20260505204019 | 16 | 134 | 0.0 | 1.6 | 0.00 | 0.03 | 0.03 | 77 | 1005.8 |
| 20260505203520 | 16 | 327 | 0.0 | 4.8 | 0.00 | 0.03 | 0.03 | 77 | 1005.8 |
| 20260505203020 | 16 | 67 | 0.0 | 3.2 | 0.00 | 0.03 | 0.03 | 77 | 1005.9 |
| 20260505202540 | 16 | 317 | 0.0 | 6.4 | 0.00 | 0.03 | 0.03 | 77 | 1005.9 |
| 20260505202020 | 16 | 306 | 1.6 | 4.8 | 0.00 | 0.03 | 0.03 | 77 | 1005.9 |
| 20260505201520 | 16 | 7 | 0.0 | 3.2 | 0.00 | 0.03 | 0.03 | 77 | 1005.8 |